RH
45 55 64 75 85 84 84 88 91 91 87 80 69 65 66 53 45 46 46 45 40 37 34 36 36 34 37 41 43 45 44 45 49 50 68 80 75 84 85 78 75 73 72 68 66 66 67 66 65 65 66 66 63 60 58 58 60 60 59 63 68 70 74 78 78 76 75 74 73 72 73 71 72 74 74 70 71 75 75 78 78 76 76 79 77 70 67 70 75 73 71 72 72 72 71 71 75
62 66 72 77 84 81 84 92 93 93 86 78 72 63 55 44 43 48 45 43 38 36 36 37 36 36 38 41 41 43 47 49 53 59 70 78 81 83 80 76 75 72 67 67 69 66 69 70 69 70 68 66 65 65 66 66 66 65 67 70 72 72 72 73 73 74 75 75 74 73 75 75 74 73 73 70 71 75 76 77 79 79 77 77 78 74 66 65 72 74 72 73 73 73 72 71 73
70 73 74 73 79 81 89 92 94 98 81 76 77 55 44 47 47 47 42 39 37 35 37 37 36 37 39 43 42 44 47 49 55 64 73 77 80 81 78 77 78 79 73 76 80 70 68 72 73 74 71 70 71 70 70 71 69 69 71 73 73 75 74 73 73 71 74 76 75 75 75 75 75 74 72 70 72 76 77 79 80 78 77 78 79 77 67 62 70 75 74 74 74 74 72 71 73
67 74 75 72 82 88 94 96 95 95 80 70 72 59 47 51 50 44 40 37 36 35 38 40 40 39 41 44 43 43 46 49 56 64 72 73 74 75 75 74 76 81 84 87 80 67 66 72 74 72 69 69 70 68 70 70 69 71 74 75 75 77 77 75 75 74 76 78 77 76 74 75 75 73 72 71 73 78 78 79 78 76 77 77 79 80 67 60 70 76 76 75 76 75 73 72 73
70 78 78 77 87 92 96 99 89 87 87 70 63 67 54 48 49 43 39 36 35 38 40 41 41 40 40 43 43 44 45 48 54 60 67 71 70 72 72 72 73 77 88 86 63 55 61 67 68 66 64 63 64 66 72 73 72 74 75 78 76 77 77 73 75 77 78 80 79 75 74 75 74 70 70 74 77 79 78 77 76 77 78 79 81 77 64 63 72 77 76 75 75 76 75 74 73
79 84 82 81 88 92 94 96 87 86 90 75 65 65 51 44 45 41 39 37 37 40 40 40 39 38 37 38 40 41 42 46 52 57 64 69 68 70 71 71 75 76 86 77 44 45 57 61 66 66 65 66 67 70 74 73 72 72 75 80 76 74 74 71 72 75 77 82 81 75 75 75 72 70 70 75 78 78 78 77 77 79 78 69 61 51 53 69 77 77 76 76 77 78 76 75 72
82 84 85 85 88 93 96 92 89 90 84 77 73 57 45 43 41 41 40 39 41 40 39 39 38 38 38 39 40 40 43 47 51 56 63 67 67 69 70 72 74 74 85 69 43 53 64 65 70 69 68 69 70 70 70 68 67 67 71 76 73 71 71 72 72 72 75 80 81 78 79 77 74 75 77 78 77 77 77 77 77 80 70 46 34 40 61 78 79 77 75 76 78 77 75 70 66
75 80 87 86 91 96 93 89 89 89 80 78 72 49 41 44 41 43 42 42 42 39 37 37 36 40 41 39 41 44 45 48 52 58 62 64 65 66 68 71 71 76 81 60 49 63 66 67 69 68 67 67 67 65 65 65 67 69 71 72 72 72 72 75 75 73 75 77 80 79 80 80 80 81 82 81 79 78 77 76 76 77 64 44 48 64 76 78 76 76 74 75 75 73 69 63 60
72 79 86 86 91 93 85 86 90 89 82 78 65 46 43 43 43 45 44 43 42 38 36 35 36 40 42 40 43 47 48 52 56 59 61 63 64 65 68 71 71 80 75 52 56 67 66 69 67 66 65 63 63 62 67 70 72 72 72 74 75 76 77 79 80 78 78 79 80 79 78 80 83 84 83 80 79 79 77 76 76 76 62 54 67 76 76 74 74 74 71 72 70 66 61 55 52
75 81 87 86 87 91 88 87 91 90 83 77 60 46 45 43 44 47 45 44 41 38 36 36 39 42 43 43 46 48 51 55 57 58 60 62 63 66 70 69 68 75 72 60 66 71 71 72 65 63 61 61 62 64 72 75 73 71 73 77 78 80 82 84 84 82 82 83 83 80 78 78 81 82 80 78 78 77 76 77 78 75 61 54 67 74 73 71 70 70 66 64 61 56 49 42 38
72 82 86 84 88 92 88 84 90 87 79 77 65 51 46 44 46 47 45 45 43 39 38 39 41 43 43 45 48 49 52 54 55 57 60 61 63 68 69 64 65 69 72 75 73 71 72 68 63 62 60 61 63 67 73 73 72 74 77 78 80 82 82 83 83 83 85 86 86 83 80 79 80 81 76 76 78 75 74 77 79 74 62 57 65 72 71 70 70 68 62 56 52 44 37 34 33
57 79 88 86 92 90 79 79 89 87 81 81 75 62 52 47 46 48 47 46 43 38 36 38 40 42 43 45 47 49 51 52 55 58 60 61 63 67 64 60 67 71 76 79 73 69 68 64 64 64 62 62 66 71 72 71 71 75 79 78 83 84 82 82 82 84 85 87 88 82 80 79 79 79 75 76 77 74 73 74 75 71 66 64 68 71 71 71 70 65 57 48 42 36 36 38 39
53 74 86 88 88 85 78 78 85 85 85 83 74 65 60 56 50 47 46 44 44 42 38 37 40 41 43 43 45 48 50 52 57 60 60 61 63 63 62 64 71 78 83 82 76 73 69 65 66 66 66 65 69 72 70 69 69 75 80 79 83 84 82 81 82 83 83 88 88 80 80 78 76 78 77 79 77 74 75 74 72 67 66 67 68 68 69 69 65 60 50 42 40 41 44 47 48
52 59 78 90 81 81 82 79 80 80 84 78 71 68 66 67 56 45 44 45 45 44 39 37 39 40 42 42 43 46 49 53 57 60 60 60 62 62 65 70 74 81 86 83 79 77 73 69 68 68 69 69 70 70 71 71 71 76 79 81 82 82 81 78 79 81 84 87 80 77 82 78 76 79 78 79 78 78 78 74 72 68 66 67 66 65 65 64 60 56 50 46 47 48 50 52 53
48 48 74 89 77 81 80 77 75 73 82 74 70 72 66 68 60 45 43 46 45 41 39 38 38 39 40 40 41 45 49 52 56 60 59 58 61 63 66 71 75 84 88 84 80 76 72 72 71 71 69 69 69 68 72 75 77 79 78 79 78 78 79 78 80 82 83 80 75 79 83 78 77 78 78 79 79 80 77 73 73 70 66 64 64 63 62 60 58 56 54 52 50 50 51 52 54
43 44 72 81 75 83 72 69 70 67 77 72 70 72 65 66 62 52 47 45 42 39 40 39 37 36 36 37 41 45 49 51 55 59 59 59 61 61 64 70 73 80 87 84 79 76 71 71 71 70 69 67 66 64 69 74 78 79 76 76 76 77 78 79 82 81 79 76 76 81 81 79 80 79 79 79 79 77 73 70 71 70 67 64 61 60 59 58 57 56 57 55 52 51 50 51 53
38 47 75 74 71 82 70 64 64 63 70 70 73 71 66 69 66 58 51 44 42 41 40 39 37 32 33 37 43 46 49 52 55 58 59 61 62 60 62 67 69 73 82 82 78 77 72 72 69 66 66 64 62 61 65 70 75 79 77 75 76 76 77 82 84 78 75 76 79 79 79 80 80 78 77 77 78 76 71 69 68 66 64 61 58 56 55 56 56 56 55 54 52 51 51 53 54
37 49 67 62 64 76 68 60 56 60 68 71 74 68 64 71 68 59 51 46 45 43 39 36 33 31 35 40 44 47 50 54 56 58 61 62 61 60 60 62 66 72 79 83 83 83 76 72 66 62 65 64 60 60 62 66 73 81 80 77 78 77 78 85 85 77 74 78 80 76 76 78 78 76 74 75 76 76 75 71 67 63 60 58 56 55 55 56 56 55 53 51 50 50 51 53 55
39 43 49 54 64 67 63 60 55 59 65 69 72 65 61 65 62 55 51 50 46 43 37 32 32 35 40 42 44 48 51 54 56 59 61 61 60 60 59 59 63 69 77 83 85 84 80 74 66 65 69 64 58 59 61 62 70 79 82 81 83 83 82 85 84 78 76 78 78 75 73 75 77 76 76 77 76 77 77 73 67 62 58 56 55 56 57 56 54 52 52 53 56 58 57 59 67
38 42 48 54 56 58 61 60 59 63 66 71 73 67 62 61 58 54 52 51 46 41 34 31 35 39 42 43 45 48 51 54 56 58 57 58 58 58 58 57 57 64 73 79 85 85 80 75 70 69 72 67 59 59 63 65 69 75 79 81 82 83 84 83 82 78 76 79 77 73 70 70 74 76 78 78 75 74 73 71 66 60 58 56 56 55 56 54 53 53 54 59 66 71 71 71 77
38 45 55 55 51 61 69 64 67 71 72 73 71 66 63 59 56 54 52 51 48 40 33 33 37 40 42 44 46 48 50 53 54 54 54 55 56 56 56 54 54 61 69 75 87 88 79 74 72 70 72 72 67 64 68 69 70 74 77 77 76 78 81 80 80 78 75 79 79 72 70 70 72 75 74 73 70 66 64 63 59 55 55 54 55 54 54 53 54 58 61 68 74 74 74 72 71
41 49 55 56 56 70 79 77 78 76 75 75 69 62 59 57 56 54 50 51 48 38 34 36 38 41 42 44 44 47 49 50 52 51 52 53 54 55 53 51 53 60 67 73 85 87 79 75 76 75 71 70 70 69 70 68 69 76 78 74 71 72 78 78 78 78 74 80 81 72 70 70 71 73 72 71 67 62 59 57 53 52 53 53 55 56 56 55 58 66 69 73 74 73 72 69 65
41 50 53 58 59 69 81 81 80 78 77 75 66 56 53 53 53 49 46 47 46 40 37 36 38 41 42 44 43 44 47 47 49 49 51 51 52 53 50 49 51 57 65 72 82 86 84 79 76 79 77 70 68 68 67 65 66 74 79 78 73 68 72 76 78 79 74 77 80 76 74 73 73 74 73 72 67 65 63 59 55 54 53 53 54 56 58 59 65 74 77 74 70 68 66 64 63
39 51 52 57 58 65 77 74 73 77 77 74 63 52 49 51 49 45 44 45 45 42 38 35 38 41 41 42 42 43 45 45 46 48 49 49 51 50 48 48 49 55 62 69 78 84 85 80 72 74 77 71 65 63 63 63 63 69 78 84 82 71 67 71 76 77 73 71 74 76 76 75 76 75 77 76 73 72 67 60 57 54 53 52 51 55 61 65 68 75 79 75 69 66 64 62 61
35 52 55 59 60 64 71 68 71 75 75 73 60 50 51 54 50 46 45 43 43 41 37 36 38 40 41 40 40 42 43 44 45 45 46 47 47 47 46 47 48 54 60 66 74 79 81 79 73 69 67 65 65 62 61 64 66 72 78 81 82 73 64 65 67 67 68 69 69 73 76 77 74 72 78 79 78 76 66 58 55 53 51 50 52 59 70 73 71 74 78 77 71 68 65 62 60
32 47 57 68 69 70 72 71 79 80 77 71 59 57 62 60 54 50 46 42 40 40 36 35 37 37 38 38 39 40 40 41 42 42 43 44 44 45 45 46 48 53 58 64 69 74 77 78 77 75 69 65 65 62 58 60 63 70 75 76 78 73 65 62 61 60 62 66 66 68 79 85 78 71 75 77 76 69 59 56 57 56 56 59 62 67 74 74 73 77 80 79 72 68 66 62 60
31 43 57 72 69 66 70 76 86 83 77 71 62 66 69 63 58 53 46 41 39 38 36 35 36 35 35 36 37 38 38 38 40 41 42 42 43 45 44 45 48 52 57 61 65 70 73 74 78 85 86 78 72 64 59 64 68 73 74 73 75 75 71 65 61 61 61 63 65 67 77 88 85 79 81 79 73 62 57 64 67 68 69 71 73 73 76 77 79 81 81 80 74 69 67 63 59
34 46 61 76 69 66 69 74 81 76 75 73 65 66 69 64 59 53 44 41 39 36 35 34 34 33 33 35 36 37 37 37 39 41 41 42 43 43 44 45 47 52 57 61 64 67 69 72 76 82 88 88 87 80 75 78 77 75 72 67 71 79 79 73 64 62 62 63 69 74 77 82 83 85 86 83 78 70 70 76 77 76 75 76 78 78 79 81 81 79 77 77 74 70 68 64 59
43 55 72 86 79 77 77 73 71 68 72 74 67 64 68 64 56 50 44 40 38 35 35 34 33 33 33 34 36 36 37 38 40 41 41 42 43 43 43 45 46 52 58 61 62 64 67 71 74 78 82 85 90 90 86 82 75 73 71 65 72 84 84 80 73 65 63 65 68 78 84 82 81 80 82 83 82 78 78 80 79 79 78 78 81 81 79 79 77 74 73 73 72 70 65 62 57
40 52 68 83 85 83 80 75 69 66 71 73 71 69 68 66 57 49 45 42 37 34 34 33 33 33 33 35 36 36 37 39 40 40 41 41 42 42 42 43 45 51 58 59 59 62 66 69 72 76 79 80 84 87 84 79 80 82 75 70 78 86 84 85 79 62 59 64 63 72 82 78 70 68 74 82 82 81 79 78 79 81 82 78 77 80 81 80 80 78 75 73 71 67 62 59 53
27 39 47 58 73 80 78 75 72 71 73 74 73 72 70 67 58 50 47 44 38 34 33 33 34 33 34 36 35 37 38 39 39 39 41 40 40 41 40 41 45 52 56 56 59 63 65 67 70 72 77 80 80 84 84 82 86 85 79 80 83 82 81 82 76 61 56 58 56 58 60 57 56 63 76 83 81 81 79 79 81 81 83 80 72 74 77 78 79 79 75 74 71 63 58 57 54
21 34 41 40 56 79 84 77 74 71 72 75 72 68 70 68 59 52 50 46 38 34 34 32 33 34 34 35 34 36 38 38 38 37 39 39 38 39 38 39 43 50 53 56 61 63 64 68 69 70 76 80 80 83 85 86 86 81 81 84 80 75 75 74 73 68 61 54 51 50 46 44 47 57 74 82 80 79 78 80 80 79 82 78 69 71 72 73 78 79 74 72 71 64 58 55 54
18 24 34 35 49 77 86 80 76 69 70 82 78 69 72 70 60 53 49 46 40 34 34 33 33 34 34 34 33 35 37 36 35 35 36 37 37 38 38 39 42 48 53 58 61 63 66 70 69 69 74 80 82 82 85 86 84 80 81 83 79 73 69 68 69 69 67 59 52 49 48 48 47 51 64 78 81 79 80 79 74 75 79 70 69 76 72 70 76 77 76 73 70 65 60 54 51
18 17 21 27 42 61 71 80 82 71 70 79 77 70 70 66 59 55 51 46 41 35 34 33 33 35 33 32 33 34 34 34 33 34 34 35 37 37 38 39 41 48 54 58 62 64 67 70 69 69 75 79 72 68 76 80 78 80 81 80 78 72 67 66 65 65 69 65 52 47 50 52 53 54 60 75 83 80 80 79 69 67 67 60 67 76 72 72 74 71 71 69 68 66 62 57 53
15 17 21 26 37 49 59 71 73 67 69 73 72 69 67 66 61 58 55 49 44 37 35 35 34 35 34 31 33 33 32 32 34 34 33 35 37 37 38 39 42 49 54 57 63 65 66 71 72 72 79 74 57 54 63 69 75 81 82 81 78 73 67 66 67 67 70 67 52 48 53 52 56 60 62 74 83 82 82 78 66 61 60 58 65 71 71 73 73 70 67 65 66 66 61 57 53
14 15 20 25 34 47 55 58 58 61 70 69 67 69 69 71 68 62 58 53 48 40 34 36 34 33 33 31 32 33 31 32 33 34 34 35 37 38 39 40 44 49 53 58 65 67 68 76 77 75 81 71 51 52 56 62 78 82 80 82 80 76 69 67 71 70 73 70 53 50 54 53 55 61 66 73 80 85 86 77 65 60 61 64 68 71 70 68 68 68 67 67 67 63 57 54 51
15 13 16 22 28 38 44 53 62 62 65 64 63 72 75 72 73 72 64 57 55 48 37 36 36 33 33 32 32 33 31 31 34 34 34 36 37 39 40 41 43 48 54 61 68 72 74 80 80 78 84 69 48 55 63 70 83 82 79 81 80 80 73 71 72 70 77 70 52 52 55 53 55 58 65 70 73 80 82 75 66 60 64 70 74 74 70 68 68 64 64 71 73 69 62 53 48
16 12 15 23 28 30 33 53 76 72 67 69 66 76 82 71 71 78 76 64 58 53 41 35 36 35 33 31 32 34 32 32 36 36 36 37 39 40 41 42 42 47 57 63 69 74 77 80 81 83 84 69 53 61 74 79 82 81 79 78 79 81 76 76 73 70 80 69 49 52 54 53 57 55 61 68 70 74 74 70 66 63 65 69 71 70 67 71 73 66 67 74 74 71 64 53 45
16 14 15 20 24 29 33 49 75 76 68 72 70 77 86 75 67 77 85 78 66 62 53 42 36 35 35 32 33 36 34 35 38 38 38 40 41 42 43 43 43 48 58 64 69 75 78 80 83 85 80 74 68 69 76 80 80 80 78 75 77 78 76 80 76 72 82 69 47 50 54 53 54 54 58 64 68 72 71 68 68 67 65 65 67 67 66 69 71 67 69 72 69 66 59 50 48
15 16 14 17 20 29 36 45 63 67 60 65 70 79 88 81 75 79 85 87 83 80 75 60 46 39 36 34 34 36 36 37 39 39 40 41 43 44 45 45 44 49 57 64 69 75 80 81 82 85 81 79 78 72 77 82 79 80 80 76 74 75 76 78 75 76 82 71 51 47 53 53 53 55 56 60 66 70 70 68 68 68 65 66 64 64 68 69 70 70 69 68 67 67 58 49 50
15 16 14 16 19 24 33 41 55 60 54 57 68 86 95 87 87 87 83 89 90 87 83 72 60 51 42 36 35 36 36 38 39 41 41 42 45 46 46 46 45 50 56 62 68 70 78 80 77 80 81 82 81 73 77 83 76 76 78 77 74 75 81 80 76 78 81 79 65 51 51 51 52 54 52 63 75 70 67 67 66 66 66 68 63 66 77 76 73 71 68 68 67 67 61 52 53
15 15 13 12 15 22 32 39 50 59 59 56 62 85 95 87 87 84 81 91 92 87 85 76 68 64 50 38 37 37 37 39 40 41 42 42 45 47 47 48 46 51 54 60 66 66 73 79 73 72 75 81 80 67 65 71 69 70 72 74 77 77 82 82 78 79 81 82 77 66 55 46 54 59 51 70 85 69 63 67 67 67 65 66 65 72 81 78 78 75 73 76 66 60 59 56 56
16 13 10 10 10 20 31 35 44 54 56 51 50 66 87 94 89 77 80 94 93 89 88 79 71 70 58 42 38 39 38 40 41 41 43 43 46 48 49 49 48 52 54 57 63 64 69 74 69 65 69 76 72 57 57 62 62 68 70 73 76 73 77 79 78 81 79 77 80 77 62 47 62 74 61 72 81 63 61 68 68 70 69 67 66 73 78 77 81 81 78 78 66 58 60 62 60
17 10 8 11 9 12 18 22 29 34 37 48 53 53 67 84 78 68 77 92 92 91 90 85 77 72 65 49 39 39 38 41 43 44 44 44 46 48 49 50 50 52 55 56 59 63 68 68 64 62 66 72 67 58 61 62 60 66 68 71 72 71 78 79 76 78 74 75 81 79 73 62 67 82 74 70 69 57 60 68 67 71 76 76 69 70 78 80 83 80 73 70 64 59 59 62 59
15 10 9 10 9 10 11 13 17 18 24 47 57 45 48 67 70 67 79 89 91 92 90 89 83 74 70 59 44 38 39 41 44 46 45 45 47 49 51 52 52 52 55 56 56 63 71 68 63 63 66 71 66 61 62 62 63 64 64 70 71 71 81 81 76 76 71 76 82 77 81 77 69 81 83 67 60 57 58 66 67 67 75 79 69 69 80 82 79 72 62 61 61 60 60 62 58
12 10 10 10 9 9 9 10 13 14 21 32 36 29 38 68 83 81 89 92 88 90 91 89 84 76 70 63 50 41 39 42 45 46 45 46 47 49 52 53 52 52 55 57 56 64 75 73 65 63 67 70 65 61 59 60 64 63 65 74 74 74 82 78 75 78 74 78 81 75 81 80 68 76 81 64 58 57 55 63 68 67 74 75 69 75 82 79 75 67 60 62 64 64 64 60 57
11 10 11 11 11 10 10 12 11 17 25 23 20 20 28 59 83 83 85 83 75 81 92 91 86 79 69 63 59 48 41 41 44 46 44 46 48 49 53 53 52 54 56 57 58 64 76 79 72 66 69 69 64 60 58 58 61 61 67 77 76 77 80 76 74 78 78 77 74 72 77 76 68 72 77 64 57 60 60 64 67 68 74 74 70 77 78 74 78 76 72 72 67 65 64 61 63
10 12 13 14 15 14 14 15 14 20 25 19 18 20 21 42 67 73 70 65 60 68 82 87 86 82 72 66 63 54 46 43 43 45 43 44 47 48 52 54 52 53 53 55 58 64 74 82 80 73 74 72 64 61 58 57 58 59 68 76 77 80 80 73 71 74 77 73 72 74 73 70 71 74 77 70 64 72 74 68 67 70 75 75 70 71 70 71 78 79 78 78 71 63 61 62 64
10 12 15 18 19 19 19 19 19 20 20 17 17 21 26 39 53 59 60 56 53 57 65 73 76 75 74 71 66 61 55 47 42 42 43 44 45 46 48 51 50 51 52 53 55 63 72 81 83 76 75 74 67 64 60 55 55 58 66 73 73 80 82 76 70 70 69 68 74 80 70 66 73 77 80 78 73 81 81 68 67 71 73 71 65 64 65 65 73 79 77 77 76 71 66 63 60
11 13 17 20 21 23 23 20 19 19 16 15 16 21 38 52 50 46 49 48 48 51 55 61 62 64 71 72 68 67 60 50 43 41 42 43 43 45 46 48 49 49 52 54 54 60 70 79 83 78 75 72 65 65 64 56 54 56 60 66 69 74 80 79 73 68 66 66 74 77 68 63 69 75 81 81 75 77 76 68 67 66 66 66 63 63 63 59 66 75 72 69 72 73 69 63 59
10 10 13 17 17 20 21 17 18 18 15 14 16 23 39 54 52 42 39 39 41 46 49 54 57 59 65 67 65 67 63 55 48 42 41 43 43 45 46 46 50 49 51 55 53 57 66 74 79 77 74 72 65 63 66 60 54 55 56 62 70 71 72 74 74 74 74 73 73 73 72 70 71 75 82 82 76 73 74 73 70 67 65 64 63 62 60 58 61 63 62 62 65 66 64 58 55
9 9 12 15 12 13 16 15 14 14 16 15 17 29 39 43 45 40 37 36 34 39 46 51 56 60 64 63 59 61 64 64 56 45 42 44 43 46 46 46 50 50 50 53 53 56 63 71 76 73 67 68 65 61 64 62 58 57 53 55 65 67 66 70 76 80 80 79 78 77 77 76 72 74 79 79 75 75 79 76 70 70 68 64 63 60 59 60 59 58 58 60 61 62 60 57 56
8 9 12 12 9 9 12 14 13 13 19 17 15 35 47 42 41 41 39 40 36 37 46 51 53 56 61 61 56 53 58 65 61 50 45 45 45 46 47 48 50 49 49 52 54 58 62 68 77 75 64 60 62 61 61 64 66 66 57 50 56 63 67 73 78 81 80 80 83 81 79 76 71 73 76 73 71 75 81 79 74 74 70 64 63 60 58 60 60 60 60 58 58 59 58 57 59
8 8 8 8 6 8 10 14 16 14 18 16 13 34 50 47 49 46 39 41 40 39 45 52 55 54 53 57 56 51 54 63 62 53 49 47 46 47 47 48 49 48 50 52 53 58 62 68 77 80 69 58 58 59 60 61 66 71 63 49 48 59 71 77 79 84 82 81 84 81 75 71 68 74 76 72 72 72 72 76 79 78 73 67 66 63 59 59 60 61 60 58 57 57 57 57 59
7 7 6 6 7 10 11 13 16 14 17 17 11 24 40 42 44 45 42 42 42 40 42 48 55 54 51 54 57 56 58 63 61 57 56 51 46 49 49 48 49 48 50 53 56 59 63 68 74 78 73 66 65 66 69 67 66 72 70 56 49 55 67 74 78 83 80 77 84 82 73 65 64 71 74 72 75 71 65 69 71 73 78 72 64 64 61 58 61 61 58 60 61 58 57 57 57
6 6 7 7 7 9 9 11 14 13 17 18 13 22 40 45 42 40 40 39 40 47 50 51 56 56 54 54 58 62 61 62 63 60 59 55 49 49 50 49 49 49 51 56 59 60 62 66 71 72 72 72 73 73 76 78 76 77 78 71 63 56 60 72 79 79 75 71 77 81 77 74 71 72 73 72 74 73 71 73 68 67 80 80 68 65 64 61 63 61 59 66 70 66 62 61 60
7 8 9 8 6 6 7 8 9 10 15 17 18 35 54 58 53 47 43 43 50 56 57 59 64 62 59 56 56 61 61 63 67 63 59 57 53 51 51 49 49 50 54 59 61 60 61 64 66 67 67 69 71 70 72 77 79 80 79 81 79 68 65 75 79 77 76 71 73 77 77 78 77 74 75 75 74 73 76 80 76 73 82 85 75 70 74 74 69 61 60 68 75 73 68 66 63
6 7 8 9 6 7 10 10 8 6 11 12 15 40 62 62 58 56 54 59 65 65 60 63 67 64 62 61 57 58 62 65 68 66 62 58 54 53 51 50 51 53 57 61 61 60 61 63 65 65 64 66 66 64 66 71 74 76 76 78 82 79 77 80 78 75 76 74 75 77 74 75 73 70 71 74 75 79 82 83 83 82 83 83 77 73 78 82 76 66 60 62 68 68 64 62 59
Wind_Speed
8 9 10 10 6 5 3 3 1 0 1 0 1 3 2 4 9 10 11 10 8 10 13 13 12 13 12 12 12 15 16 11 8 8 11 18 24 22 22 22 20 20 19 18 17 16 16 16 16 15 15 14 13 13 13 12 12 10 10 9 9 9 9 10 10 10 10 10 11 12 12 11 12 12 12 13 14 15 16 16 16 16 16 17 18 17 16 17 17 17 18 18 17 17 16 15 16
11 9 10 7 1 5 4 3 1 0 1 1 1 3 8 8 10 11 10 9 8 12 14 15 16 17 18 17 17 18 19 21 25 24 24 28 27 22 22 21 20 20 19 19 17 17 16 16 16 14 14 13 12 12 11 11 10 9 9 9 8 9 9 10 10 9 9 10 10 11 11 11 12 12 12 12 14 15 15 15 15 16 16 16 17 17 16 16 16 16 17 17 17 16 16 15 15
6 3 4 3 5 5 2 2 1 1 1 3 2 4 9 8 10 11 10 12 14 16 15 15 15 15 18 16 17 19 17 25 33 32 31 31 30 26 23 23 22 21 20 19 17 16 16 16 16 14 13 13 12 11 10 10 9 9 8 9 9 9 10 10 11 9 9 10 10 10 10 10 11 11 12 12 13 14 15 15 15 15 15 16 16 16 16 16 16 16 16 16 16 16 16 15 15
7 3 4 7 4 4 1 0 1 0 0 3 4 2 6 10 11 12 13 16 16 16 16 14 12 13 17 17 17 19 19 25 28 30 30 28 29 28 26 25 23 23 21 18 17 16 16 16 16 15 13 12 12 11 10 9 9 9 8 9 8 9 9 9 10 10 9 9 10 11 10 10 10 11 12 13 13 14 14 15 15 15 15 15 15 15 15 16 16 15 15 15 15 15 15 15 15
9 6 4 7 1 2 1 0 2 0 0 1 5 1 4 13 12 12 14 16 17 16 15 14 12 15 18 17 16 16 20 24 24 26 28 26 26 27 26 24 23 23 22 18 16 16 15 15 15 14 13 12 11 10 10 9 8 8 8 8 8 8 8 8 9 10 9 9 9 10 10 10 10 10 11 12 13 13 14 15 15 15 14 14 14 14 15 16 16 15 15 15 15 15 15 16 16
6 3 5 5 0 1 2 1 1 2 1 3 4 5 9 13 12 13 14 16 16 15 16 15 16 17 18 19 19 19 22 23 23 25 28 28 26 26 24 23 21 21 21 17 15 16 16 15 15 14 12 11 10 10 9 9 8 7 7 7 7 7 7 7 8 9 9 10 10 9 10 11 11 10 11 12 12 13 14 15 15 15 14 13 14 16 17 18 17 16 16 16 16 16 16 16 16
4 3 2 2 1 2 1 1 1 1 1 3 2 8 12 13 14 15 13 15 14 13 15 17 20 17 15 18 20 20 21 21 24 26 27 28 25 24 23 22 22 23 21 17 16 17 15 15 15 13 12 11 10 10 9 9 8 8 7 7 7 7 7 7 7 9 9 10 10 10 11 11 11 11 11 11 12 13 14 15 15 15 15 15 16 19 19 18 17 16 16 16 16 16 16 15 15
8 2 2 1 1 1 1 1 1 1 1 2 3 9 14 14 15 13 11 12 11 12 14 18 21 17 15 19 18 19 21 22 26 27 28 27 25 23 22 22 23 22 20 17 16 16 14 15 14 13 12 11 11 11 10 10 9 9 8 7 7 7 7 7 8 9 9 10 10 11 11 11 11 12 12 12 12 13 14 15 15 16 16 17 19 20 19 17 17 17 17 16 16 15 15 14 14
7 1 1 1 1 1 1 1 0 1 3 1 3 10 15 16 14 11 11 11 11 13 15 19 21 17 18 22 21 21 23 25 28 28 27 25 24 23 21 21 22 21 18 16 16 15 14 14 13 13 12 12 11 11 11 10 10 9 8 8 7 7 8 8 9 9 10 10 11 11 11 11 11 12 12 12 12 13 14 15 15 16 17 18 19 19 18 17 17 17 17 16 15 15 14 13 13
5 1 0 1 0 1 0 1 0 1 2 4 5 13 14 15 14 11 12 13 13 14 17 20 22 21 21 21 21 22 25 26 28 26 25 24 23 22 22 20 21 21 17 16 16 15 14 13 12 13 12 12 11 10 11 10 9 8 7 8 8 8 8 9 9 9 10 11 12 13 12 11 11 12 12 12 12 13 15 15 15 16 17 18 18 18 17 16 16 16 16 15 14 14 13 13 13
5 3 1 1 1 1 1 2 2 2 4 1 3 11 12 14 13 12 13 12 13 15 20 21 20 24 22 20 21 22 25 25 25 25 24 23 22 22 22 21 20 18 16 17 16 15 14 12 12 12 12 12 11 11 11 10 8 7 7 7 8 8 8 9 9 10 10 12 13 13 13 12 12 12 12 12 13 13 15 16 16 16 17 17 17 17 17 16 15 15 14 14 14 14 14 14 14
5 5 2 1 1 1 2 4 5 3 4 3 2 6 10 13 12 12 12 12 14 16 19 18 18 22 18 17 21 23 24 24 24 24 23 22 22 21 21 20 20 16 15 17 16 15 13 12 13 12 12 11 11 11 10 10 8 7 8 7 8 8 8 8 9 10 10 12 13 14 13 13 13 13 13 13 14 15 16 16 16 17 16 16 16 16 16 15 15 14 14 15 15 15 15 15 14
5 3 2 1 1 1 1 4 7 4 2 2 4 6 9 9 11 13 13 13 14 14 16 18 21 21 16 18 22 23 23 23 23 23 22 22 21 21 21 20 20 17 16 17 16 15 13 13 14 13 13 12 11 11 11 10 9 9 9 8 8 9 9 9 9 10 10 11 14 14 14 15 15 14 14 14 15 16 16 16 17 17 16 16 16 15 15 15 15 15 15 16 16 15 15 14 13
6 2 1 1 1 1 2 3 7 7 3 3 4 6 7 5 9 14 14 13 11 14 17 19 22 20 18 19 20 23 22 22 23 22 21 21 21 21 21 20 19 18 16 16 16 15 14 14 14 14 13 12 11 12 11 11 10 10 10 10 9 10 10 11 11 12 12 12 14 16 16 16 16 16 16 16 17 17 16 17 18 17 16 16 16 15 15 16 16 16 16 16 15 14 14 14 13
8 5 0 0 1 3 1 3 6 7 4 5 5 5 7 5 7 13 14 12 12 17 19 18 18 15 17 18 18 24 24 23 23 21 22 21 21 21 20 20 18 18 17 14 14 13 13 14 14 14 12 11 12 12 12 12 11 11 11 11 11 11 11 13 14 13 14 13 14 17 18 17 17 17 17 17 17 17 17 17 17 16 16 16 16 15 15 16 16 15 15 15 14 14 14 13 13
9 6 2 0 2 3 1 4 6 6 6 6 6 7 8 6 5 9 12 12 14 17 17 16 14 13 19 21 23 27 25 24 23 22 22 21 21 20 20 20 17 18 17 13 12 12 13 14 15 14 12 11 12 12 13 13 13 12 12 13 13 12 12 14 15 14 15 14 15 18 18 18 18 18 18 18 18 18 18 18 17 16 16 16 16 15 15 16 15 14 14 14 14 13 13 13 13
9 4 1 2 1 2 2 5 5 6 9 8 9 9 8 8 6 8 10 12 14 15 14 13 14 18 21 23 27 29 26 24 23 23 22 21 20 19 19 18 16 17 17 14 12 13 13 14 14 14 13 12 12 13 13 13 14 13 14 14 14 14 14 14 16 17 17 17 18 19 19 19 20 20 19 18 18 18 18 18 17 16 17 16 16 16 15 15 15 14 14 14 14 14 13 12 12
8 2 2 3 3 1 4 5 5 8 11 11 11 11 10 11 11 11 11 12 13 13 13 16 19 21 23 26 29 27 25 24 23 23 22 20 19 18 18 17 16 17 16 15 13 13 13 12 13 14 14 12 12 13 13 12 14 14 13 14 14 15 16 15 17 19 19 19 20 19 20 20 21 21 20 19 18 18 18 18 18 17 17 17 17 16 15 15 15 15 14 14 14 14 14 14 12
5 4 4 3 3 2 5 6 9 11 14 13 11 12 11 12 14 13 12 12 13 11 13 20 23 25 27 29 28 26 25 23 22 22 21 19 18 18 17 16 16 16 15 15 14 11 10 11 12 14 14 13 13 12 13 13 15 15 13 13 13 14 17 17 17 19 19 19 20 21 20 21 21 21 20 19 19 18 17 18 17 17 17 16 16 16 15 14 14 14 14 13 13 12 12 13 12
4 5 4 3 2 3 2 5 12 15 16 15 10 12 12 13 14 13 12 13 13 10 13 20 26 29 29 28 27 26 24 22 22 20 20 19 17 17 16 16 15 16 15 15 15 10 9 11 13 14 14 14 13 12 13 14 15 15 14 12 13 14 16 18 17 17 19 18 19 20 20 21 21 20 19 18 18 18 17 17 17 17 16 16 15 15 15 14 13 13 12 12 11 11 11 10 9
3 4 5 6 4 2 3 4 12 16 16 14 11 11 11 13 12 12 14 12 9 10 16 22 27 30 30 29 27 25 24 22 21 19 19 18 17 16 16 15 15 16 14 14 17 12 9 12 13 13 13 13 13 12 12 13 15 16 15 13 13 14 15 17 17 16 19 20 20 19 20 21 20 20 19 18 18 18 18 17 17 17 15 15 15 14 14 13 13 12 11 11 11 11 10 9 8
2 4 7 9 6 6 7 8 13 15 14 12 11 11 12 12 10 13 14 9 7 11 18 24 27 30 30 29 27 25 24 22 20 19 19 18 17 16 15 15 15 16 14 13 17 14 11 12 12 12 13 13 12 12 12 14 16 16 16 15 14 14 15 18 18 17 18 18 19 20 20 20 20 20 19 18 18 18 18 17 17 16 15 14 14 14 13 13 13 12 11 11 11 11 9 7 6
1 3 7 9 9 11 12 13 14 11 11 11 8 10 14 13 10 13 12 10 12 13 18 24 26 28 28 27 26 25 23 22 20 19 19 18 17 16 16 16 15 15 14 13 15 16 14 12 11 12 13 14 12 12 12 14 16 17 16 16 15 14 16 17 17 18 18 18 19 19 19 19 19 19 19 18 18 17 17 17 16 15 15 14 14 14 12 12 13 11 10 10 11 10 7 7 7
1 5 7 9 13 18 17 15 14 9 10 11 8 11 14 13 11 12 12 13 16 15 18 24 25 26 26 25 25 24 22 21 20 19 18 18 17 17 16 15 14 15 14 14 14 16 17 13 11 12 13 14 12 11 12 13 15 15 14 13 14 14 16 17 17 18 19 20 19 18 18 17 17 18 18 17 16 16 15 16 16 15 14 13 13 13 12 11 10 9 10 9 8 8 5 6 8
2 8 8 10 14 17 17 15 13 9 9 8 9 12 13 12 12 12 13 14 17 19 20 24 26 25 24 24 24 23 22 20 19 19 18 17 17 17 16 15 14 14 15 15 15 16 16 14 12 13 13 14 12 13 14 15 15 15 12 11 13 15 16 17 18 19 21 21 20 18 16 15 15 15 15 15 13 13 14 15 15 14 13 12 12 12 11 9 8 8 9 6 5 6 4 4 6
5 10 10 12 13 12 12 13 10 6 5 4 9 12 11 12 13 12 13 14 18 21 22 24 25 25 23 23 23 23 22 21 20 18 17 17 17 17 16 15 14 15 15 15 15 16 17 15 14 14 15 14 13 14 14 14 15 16 14 12 13 15 15 16 17 19 20 21 19 17 15 14 13 12 13 14 12 13 15 15 15 14 12 11 10 10 9 8 7 6 5 5 5 5 5 6 6
10 14 14 15 14 11 9 11 8 4 4 4 9 11 9 8 6 8 12 15 20 22 23 24 24 24 22 22 22 21 21 20 19 18 17 17 17 16 16 15 15 15 15 16 15 16 17 16 16 15 16 15 15 17 16 14 13 14 14 14 16 16 15 14 15 17 18 19 18 16 16 14 12 11 12 14 14 14 15 14 12 11 10 9 8 7 6 5 4 4 4 5 7 7 7 9 9
14 17 17 13 9 9 8 9 8 5 3 3 9 11 8 4 3 9 15 17 20 23 24 24 23 23 22 22 21 20 19 19 18 17 17 17 16 16 15 15 15 15 15 16 15 16 17 17 16 15 15 15 15 18 18 15 13 12 12 13 16 15 14 13 14 16 16 16 17 17 17 15 13 12 13 15 14 13 12 11 9 9 9 7 7 6 6 5 4 5 6 7 8 8 6 8 7
22 21 12 8 6 4 2 3 5 3 3 5 8 10 6 3 7 14 16 17 20 23 23 23 22 22 21 21 20 19 19 18 17 17 16 16 15 15 15 15 15 15 15 15 15 16 17 17 17 15 15 16 15 17 18 16 14 13 11 11 13 13 12 11 12 15 15 15 15 15 15 15 14 14 15 14 13 11 10 9 9 9 8 7 7 7 6 6 5 5 6 7 9 7 4 5 6
21 20 10 7 4 2 4 3 5 4 4 8 5 4 5 6 10 15 15 16 20 22 23 22 22 21 21 21 19 18 19 18 17 17 16 16 15 14 15 15 15 15 15 15 16 17 16 16 17 15 16 16 15 16 16 16 15 13 12 12 12 12 12 11 12 14 15 14 12 13 15 15 15 17 17 14 12 11 10 9 8 9 8 7 8 9 7 6 5 4 5 6 7 5 3 4 6
8 13 10 8 4 4 5 4 6 5 4 7 2 1 5 7 11 15 15 16 19 21 22 22 21 21 21 20 19 19 19 18 17 17 16 16 15 14 15 15 15 15 15 15 16 17 15 15 16 16 16 16 15 16 16 15 15 14 14 13 12 12 12 12 12 13 14 13 12 13 15 16 17 18 17 14 12 10 9 8 7 7 8 7 7 8 7 6 6 5 4 4 4 4 4 4 5
6 8 6 6 4 5 4 5 5 5 4 5 2 2 6 7 12 16 15 16 18 20 22 22 22 21 21 20 20 19 19 18 18 18 17 16 16 15 15 15 15 14 15 16 17 16 15 15 15 16 17 16 16 17 16 16 15 14 15 14 12 12 12 11 12 12 13 13 13 13 14 15 16 17 16 14 12 9 8 7 7 8 7 6 7 7 7 7 7 5 5 5 5 5 5 4 4
8 7 6 6 6 7 6 5 6 5 4 4 4 3 5 6 13 17 16 16 17 19 21 21 21 21 21 20 20 20 20 19 19 19 18 17 16 15 15 15 15 14 15 16 16 16 16 16 15 16 17 16 16 17 17 17 16 15 15 14 13 13 12 11 12 11 11 13 14 14 14 14 14 15 16 14 11 8 6 5 7 8 6 6 8 6 6 7 5 3 4 6 7 7 7 4 2
7 8 5 5 7 9 7 5 8 10 7 7 6 5 5 7 13 17 18 17 17 18 20 20 21 21 21 20 20 20 20 19 19 20 19 17 17 16 16 15 14 14 15 16 16 16 16 16 16 17 16 16 16 16 16 16 17 16 15 14 14 13 13 12 12 12 11 11 14 14 14 13 13 13 14 14 11 8 6 5 6 6 5 7 7 5 5 5 4 4 6 7 8 8 8 5 1
5 7 4 2 6 8 8 8 13 15 9 9 10 7 6 9 13 16 18 18 17 18 19 20 21 21 21 20 20 21 20 20 19 20 19 18 17 17 16 16 15 15 16 16 16 16 16 16 18 18 16 16 15 15 16 17 17 15 14 14 14 13 13 13 12 13 11 11 13 14 13 13 13 12 13 14 11 8 7 6 6 5 5 6 6 4 4 4 4 4 6 7 7 8 9 5 1
8 3 5 5 4 6 8 8 12 14 10 10 12 8 7 11 11 13 18 19 17 18 20 20 20 21 21 20 20 21 20 19 20 20 19 18 18 18 17 17 15 15 15 16 16 16 16 17 18 18 16 15 16 16 16 17 16 14 14 15 15 14 14 14 12 12 12 11 13 14 14 13 13 12 12 13 11 8 6 5 5 5 6 7 5 5 3 4 5 5 6 7 7 8 9 4 1
10 7 5 6 6 3 6 8 9 8 8 8 9 6 8 11 10 9 14 18 16 16 19 19 20 20 21 21 21 21 20 19 20 20 19 18 18 18 18 18 16 16 16 17 17 16 17 17 18 19 16 15 15 16 16 15 15 14 14 14 14 15 15 15 13 12 12 11 12 13 13 13 12 12 11 11 11 9 7 6 6 6 7 7 6 5 5 5 5 4 6 6 6 5 4 2 2
10 9 5 4 7 4 6 12 10 6 4 4 6 6 8 11 11 8 9 13 15 17 19 19 21 21 20 21 21 21 20 20 20 20 20 18 19 18 18 18 17 17 18 17 17 16 16 16 18 18 16 15 15 16 16 14 14 14 14 13 13 14 15 15 13 13 12 11 12 12 12 12 11 11 11 10 9 8 7 6 5 6 7 6 5 5 6 6 6 5 5 4 5 4 3 1 5
10 7 6 5 7 7 7 14 16 9 4 4 7 6 6 9 10 8 6 5 6 10 15 17 20 21 20 19 21 22 20 20 21 20 20 19 19 19 18 18 18 18 19 18 17 17 16 16 18 18 16 15 15 16 16 14 14 13 11 13 13 13 13 13 13 13 12 10 11 12 11 11 11 10 10 9 9 8 7 6 5 5 6 6 4 4 5 6 6 5 5 3 5 6 3 2 4
9 6 9 5 9 11 5 10 15 9 2 5 8 4 2 5 6 6 5 2 4 6 6 10 15 18 20 19 20 23 22 21 22 21 21 20 20 20 19 18 19 18 19 18 18 18 17 17 19 18 16 16 15 16 16 15 16 15 11 12 13 13 11 12 13 13 12 11 11 11 10 10 10 10 10 9 9 8 7 7 6 5 6 6 5 5 5 6 6 5 5 4 4 5 4 3 1
8 10 12 3 8 11 8 10 10 7 4 7 8 3 1 4 5 6 5 5 1 8 9 8 10 12 17 20 18 21 22 21 23 23 22 22 21 21 20 19 19 19 19 19 19 18 18 18 18 18 18 18 17 16 17 16 17 17 15 15 15 14 13 12 13 13 12 11 11 10 10 10 11 10 10 9 7 8 8 8 7 6 6 6 7 7 5 4 5 3 4 3 4 5 5 5 2
7 12 15 10 2 9 17 16 10 5 4 7 8 4 1 4 7 7 6 5 5 9 10 8 9 11 15 21 20 20 22 21 22 23 22 22 22 21 21 20 20 19 19 19 19 18 17 18 18 18 18 18 17 17 17 16 17 18 17 18 17 15 15 13 13 14 13 12 10 10 10 11 11 9 9 9 7 8 9 8 7 7 6 7 7 6 5 4 4 3 2 1 4 7 7 6 4
8 8 9 13 8 10 17 15 11 4 4 10 11 5 2 3 8 9 9 8 8 9 8 9 11 13 16 21 21 21 22 21 22 22 22 22 22 22 21 21 20 19 19 19 19 18 17 18 18 17 17 17 17 16 16 15 17 17 16 17 17 14 14 14 14 15 14 13 11 10 11 12 11 9 9 10 8 9 8 7 7 7 6 6 5 5 5 4 3 3 2 3 4 6 7 5 5
7 3 3 9 10 6 10 8 7 5 5 10 12 10 5 4 9 12 11 10 8 8 7 9 12 13 13 18 21 22 22 22 23 22 23 23 22 22 22 21 21 20 19 19 19 19 18 18 17 17 17 16 16 16 15 15 16 16 15 16 15 13 13 12 13 14 14 15 14 11 10 11 12 11 10 10 9 9 8 6 6 7 6 5 5 5 5 5 5 4 2 3 3 4 7 4 5
8 7 7 10 14 7 10 8 5 6 5 7 12 14 7 1 5 10 11 10 9 10 9 9 12 13 14 18 20 22 22 22 24 23 23 23 23 23 22 22 21 19 20 20 19 20 19 19 18 18 18 17 17 17 16 16 15 15 16 15 14 14 13 12 13 13 13 16 16 12 11 11 12 12 11 11 10 9 9 7 6 7 7 5 5 5 4 4 5 4 3 3 3 3 6 5 4
11 11 8 8 12 8 8 7 5 4 6 6 9 11 6 0 4 7 8 9 11 12 10 11 16 18 18 20 20 21 23 23 23 23 24 24 23 23 22 22 21 20 20 20 19 20 20 19 19 19 18 17 17 17 17 16 15 15 16 15 13 13 13 13 14 14 13 15 15 12 11 12 11 12 11 10 10 9 9 8 7 7 7 7 7 7 6 4 2 2 3 4 3 3 5 5 6
12 9 6 7 9 6 3 6 5 5 6 8 8 9 7 4 5 8 8 9 13 12 10 12 16 19 20 20 20 20 22 23 23 24 25 24 23 23 22 22 22 21 20 20 20 21 21 20 20 20 19 17 17 17 17 17 16 16 16 16 14 12 12 15 16 16 14 13 12 11 11 11 11 11 10 9 10 9 9 9 8 8 7 7 9 8 8 6 4 4 4 4 4 4 5 4 6
12 6 5 6 6 5 4 5 6 6 6 6 7 8 9 6 4 10 11 10 13 14 12 12 15 20 22 21 22 22 21 23 25 25 25 25 24 23 24 23 23 22 22 21 21 22 22 21 21 21 20 18 17 17 18 17 16 16 16 17 17 14 13 15 16 15 14 13 12 12 12 11 10 10 10 9 9 9 9 9 9 9 8 8 10 9 9 8 8 7 6 5 4 4 5 5 5
10 5 6 6 6 6 6 6 6 7 7 5 5 7 7 2 3 11 15 13 15 17 16 17 20 22 23 23 26 25 22 23 26 26 26 26 26 25 25 25 24 24 23 22 22 23 23 22 22 22 21 19 18 18 18 18 17 17 17 17 17 17 14 14 14 13 14 13 13 13 12 11 11 10 10 9 9 10 10 9 10 10 9 9 9 9 8 9 9 9 7 5 5 5 5 5 5
9 6 6 6 5 7 7 7 6 7 7 7 7 6 3 2 2 9 14 13 16 19 20 22 25 26 26 28 31 29 26 24 24 26 26 26 28 27 26 26 25 24 23 22 22 22 23 22 22 22 21 20 19 19 18 18 18 18 18 17 17 17 15 14 14 12 12 13 13 12 11 11 11 10 10 10 9 10 11 9 10 10 10 9 8 8 8 8 9 10 9 7 7 7 6 6 6
9 7 9 8 7 7 6 6 5 5 7 7 9 5 1 3 3 7 11 13 16 18 20 22 24 25 25 29 32 30 28 25 24 27 26 26 29 28 27 27 26 25 23 22 22 23 24 23 23 23 22 21 20 19 19 19 19 19 18 18 17 17 16 14 12 10 11 12 11 11 10 10 11 10 11 11 9 10 10 9 9 10 10 9 8 9 9 9 10 10 10 8 9 8 7 7 7
9 8 10 9 8 6 6 7 6 7 7 4 6 3 3 4 6 7 7 9 13 15 17 21 23 23 22 25 30 29 27 24 22 25 26 25 28 28 28 28 27 25 24 23 23 23 24 23 23 24 23 23 21 20 20 19 19 19 19 19 18 17 16 14 13 12 12 12 10 10 10 10 11 10 11 11 10 10 9 9 9 9 10 9 9 10 9 9 10 10 10 9 9 9 9 9 8
5 8 10 10 9 9 7 7 9 8 6 4 4 5 7 5 6 8 8 8 10 11 14 17 20 23 23 24 27 28 27 25 23 24 25 25 28 28 28 28 27 25 24 24 24 23 24 23 23 23 23 23 22 21 21 20 19 19 19 20 19 17 16 15 14 14 13 12 11 11 12 12 11 10 9 11 10 10 11 10 10 10 10 10 10 10 10 10 9 10 10 9 9 10 9 9 9
5 6 8 10 11 10 7 6 7 7 5 6 6 7 9 6 4 8 11 10 10 10 12 13 14 19 23 23 24 27 27 25 26 26 23 24 29 28 27 28 27 27 25 25 25 23 23 23 23 23 23 24 23 22 21 20 20 19 18 19 19 18 17 15 13 14 13 13 13 13 13 13 12 10 9 11 10 10 12 12 11 11 10 10 11 10 10 11 9 9 10 9 9 10 10 9 8
13 7 4 6 9 7 6 6 6 7 6 6 7 6 6 3 4 9 11 11 11 11 11 12 12 14 18 21 23 24 25 24 27 28 23 24 30 28 27 28 27 27 26 24 25 23 22 22 22 23 23 23 22 21 20 20 20 20 18 19 19 19 18 16 14 14 14 14 14 13 13 13 12 11 10 11 10 10 12 11 11 11 11 11 11 11 11 11 9 9 10 9 9 10 9 8 7
15 11 7 7 6 6 7 6 5 6 6 6 6 5 3 2 3 9 11 10 10 10 9 9 11 13 15 19 22 21 24 25 28 30 24 25 30 28 26 28 27 28 27 25 25 23 22 22 22 22 22 22 21 20 20 20 19 19 18 18 18 19 19 17 17 16 14 14 14 13 12 12 12 12 12 11 11 12 11 10 11 11 11 11 11 10 11 10 9 10 9 8 8 9 8 7 7
10 9 8 8 6 4 5 6 7 7 6 5 5 1 3 2 1 6 8 6 8 10 9 7 10 14 14 16 20 22 25 25 29 35 30 27 31 30 26 26 27 28 27 25 25 24 22 23 23 22 21 21 21 20 20 19 18 18 18 18 18 18 18 17 17 16 13 12 12 13 13 13 13 14 14 13 13 11 10 9 10 10 12 12 11 10 10 10 9 10 10 8 8 9 9 7 7
9 9 7 7 5 5 5 6 8 7 6 6 5 1 3 2 3 2 7 8 8 9 11 8 10 16 15 13 16 20 24 24 27 35 33 29 32 32 28 25 26 29 28 25 25 25 24 23 22 22 22 21 21 21 20 19 18 18 18 17 17 17 17 17 16 16 14 13 13 14 14 15 15 15 15 15 13 11 11 11 11 11 13 13 12 11 11 11 10 10 9 10 10 10 8 7 8
Wind_Direction
82 79 54 55 43 348 325 264 283 123 258 338 146 110 139 163 118 111 111 114 105 104 99 85 74 75 88 84 83 68 54 64 75 91 117 138 142 137 143 146 138 131 127 126 123 121 121 119 116 112 111 111 111 115 118 119 118 121 124 120 122 125 127 124 123 122 121 117 114 113 114 115 113 111 110 108 107 108 109 111 112 114 114 112 110 110 112 111 109 110 109 108 106 104 103 101 101
78 66 40 61 220 294 345 341 312 69 271 126 178 137 132 140 120 112 113 113 101 104 102 94 90 89 94 88 87 77 62 75 87 95 117 134 135 135 139 137 133 131 128 126 124 123 124 120 116 114 115 117 117 117 116 118 119 123 126 129 137 140 140 136 134 132 126 121 118 117 119 119 116 116 115 113 112 112 112 113 115 116 116 114 112 110 112 114 112 112 112 110 108 106 105 104 103
92 30 2 204 252 300 315 332 329 311 267 128 150 135 127 128 113 109 107 106 107 109 105 97 90 89 95 88 84 88 86 91 98 107 120 132 134 136 131 129 135 131 126 125 125 124 126 125 121 122 123 125 124 124 124 126 130 133 135 142 148 146 145 143 139 137 133 129 128 128 130 126 120 121 120 118 117 115 115 116 118 118 119 117 114 110 112 116 115 113 114 112 108 107 106 106 104
136 161 268 237 274 333 271 14 293 287 197 133 123 92 118 119 110 112 117 118 116 110 101 95 84 84 92 93 93 95 100 101 107 115 125 133 132 134 130 131 138 132 127 127 128 127 129 131 128 131 132 134 132 131 131 131 136 138 142 143 144 145 143 140 139 139 140 138 137 138 140 133 126 126 123 122 119 117 118 120 122 121 121 120 117 115 114 118 118 114 114 113 109 107 106 106 105
127 128 240 242 264 350 313 48 261 88 264 183 114 94 120 117 118 125 127 121 112 106 107 105 97 94 90 93 101 103 110 111 112 117 125 131 127 131 132 133 138 134 131 130 130 128 131 135 132 132 132 133 132 132 130 131 137 139 141 135 135 142 139 142 143 142 146 146 146 145 143 138 133 131 127 124 121 120 122 124 124 123 124 123 123 123 121 122 120 114 112 111 108 106 106 106 106
128 155 226 230 250 354 312 307 274 74 328 317 104 145 132 123 129 129 121 111 106 110 111 104 99 99 93 93 100 108 118 117 116 120 125 128 129 131 130 132 131 125 125 127 130 127 132 133 125 125 126 128 128 129 130 133 139 141 139 133 139 147 145 151 150 148 151 150 152 151 145 141 139 137 131 126 123 123 125 127 126 125 125 123 124 127 126 123 118 114 113 111 108 107 107 107 107
178 209 193 207 287 14 318 311 3 80 350 331 141 144 131 129 130 123 118 112 111 116 113 107 107 101 94 98 97 101 112 116 119 123 126 128 128 127 126 126 119 116 121 127 127 125 127 122 118 122 124 126 125 126 129 134 136 137 135 134 143 145 145 151 154 158 158 152 154 152 146 144 143 138 132 129 128 127 128 129 129 127 123 119 121 123 124 121 118 115 113 111 109 108 108 108 108
216 222 53 54 318 24 282 331 34 245 18 325 204 142 128 130 128 124 123 118 120 120 112 111 111 103 100 104 100 103 110 115 120 123 125 126 126 124 124 122 117 118 124 125 120 121 121 117 119 122 123 121 120 125 128 130 128 127 127 130 138 141 145 146 148 157 158 154 153 151 148 146 143 137 133 132 131 130 130 131 131 128 123 122 122 121 123 121 118 115 113 112 110 110 110 109 109
228 247 44 23 315 292 292 67 67 356 37 297 189 134 129 131 127 123 121 116 119 117 112 112 110 105 106 105 103 109 112 116 121 123 124 124 125 124 122 122 119 121 124 122 119 121 120 117 120 119 118 118 118 122 121 119 117 118 124 128 135 138 143 144 144 151 153 150 149 149 150 147 143 137 133 132 132 132 132 132 133 131 127 126 123 123 124 122 119 116 114 114 113 112 110 109 110
232 235 113 338 356 339 21 122 183 81 121 230 163 134 135 133 126 122 123 122 124 118 113 113 109 108 109 107 107 113 117 121 123 123 124 123 124 123 122 122 121 123 124 121 120 119 116 114 116 115 114 113 113 113 112 109 110 116 124 128 131 137 140 141 140 144 148 146 144 144 146 148 143 136 133 133 133 134 134 135 136 133 130 129 126 124 123 121 119 117 115 115 113 111 110 110 109
204 153 143 327 354 322 201 146 110 140 148 208 145 133 137 136 129 125 126 123 124 119 115 116 112 113 113 106 110 119 124 126 125 124 124 123 123 122 120 120 122 128 125 117 115 113 110 109 108 107 108 110 113 112 110 108 110 116 117 123 129 132 133 134 137 142 147 146 141 140 144 145 139 135 135 136 135 137 139 140 138 134 132 131 127 123 123 121 117 114 113 112 110 110 110 109 107
225 124 123 324 286 252 178 136 126 168 134 109 173 145 137 138 135 133 132 126 125 124 122 123 121 119 114 110 118 127 128 127 126 125 125 123 122 120 118 121 125 124 119 115 113 113 111 110 106 106 109 111 115 113 110 109 114 121 121 126 127 126 125 128 136 140 145 145 139 138 141 139 135 134 137 138 136 137 141 141 138 135 135 132 128 125 123 120 116 113 110 108 109 110 109 106 107
252 124 147 171 233 266 96 138 137 151 123 134 199 149 139 143 142 141 135 127 125 125 124 124 125 122 115 118 127 132 130 129 128 126 126 124 122 121 118 121 125 117 116 117 113 115 113 111 111 111 113 115 117 113 111 110 113 117 118 121 120 121 125 129 129 130 140 139 130 133 138 136 136 135 135 136 133 134 137 139 136 136 136 130 127 126 123 121 117 112 108 108 109 109 106 105 107
260 251 191 162 173 104 92 158 148 143 135 184 188 138 136 139 144 149 138 126 126 128 128 130 129 121 119 126 133 136 134 133 132 129 127 125 123 122 119 119 121 116 114 118 114 111 111 110 110 113 116 117 116 110 107 106 105 105 104 110 116 116 118 122 122 125 132 128 125 133 137 136 136 133 131 131 130 131 135 137 135 135 134 128 125 124 123 120 116 111 108 108 108 107 104 104 106
269 280 36 76 55 96 133 201 165 143 145 182 163 119 122 126 148 151 139 128 128 130 129 134 132 125 135 140 140 141 138 136 135 130 128 126 124 122 119 117 120 118 111 113 112 109 110 111 111 112 116 117 111 106 105 103 100 99 99 104 110 112 111 114 119 123 125 126 130 133 133 134 133 129 128 128 127 130 134 136 133 132 129 124 122 120 119 116 113 111 109 107 105 103 102 104 105
268 284 60 42 52 90 167 183 172 144 154 176 139 123 125 130 154 142 137 136 130 131 130 137 141 138 145 141 137 140 139 137 136 132 130 126 125 123 120 119 121 120 114 113 112 111 110 111 112 112 114 114 110 107 106 103 100 101 104 107 109 112 111 112 119 124 125 129 130 127 128 132 129 126 126 126 127 129 132 134 131 129 126 122 119 118 116 114 112 111 108 106 103 102 101 103 104
272 286 65 278 67 105 196 181 183 143 146 160 144 153 142 130 152 139 140 139 128 132 132 136 144 141 141 136 136 139 138 138 136 133 131 128 128 126 123 121 118 115 115 114 110 110 110 109 110 111 114 114 111 110 108 105 103 103 104 107 110 112 113 115 119 120 124 127 125 124 128 130 126 124 125 124 125 126 128 129 128 126 124 122 118 115 113 111 111 110 109 107 106 105 102 99 99
274 270 270 302 45 123 225 205 173 139 146 156 158 169 152 135 150 150 140 133 132 138 133 136 141 135 132 133 136 138 138 139 138 137 134 133 133 130 128 126 121 115 114 114 109 107 108 110 112 113 115 113 113 113 110 106 104 107 106 106 108 111 114 115 115 117 120 122 121 123 126 126 125 125 124 124 123 124 126 126 125 124 122 119 115 111 109 110 112 112 111 109 108 106 105 100 93
280 290 295 355 39 217 232 208 164 149 151 150 158 172 158 139 145 149 142 138 143 143 138 139 133 127 129 135 138 139 141 142 141 140 138 136 136 133 131 130 127 123 121 118 115 113 113 116 116 115 113 112 114 115 112 107 103 106 108 109 109 112 114 114 116 118 117 119 121 123 126 126 125 125 125 124 124 124 125 124 123 122 119 116 112 111 111 112 113 112 112 110 107 102 101 99 94
304 313 310 3 351 219 214 191 160 147 146 143 153 172 158 142 147 150 147 142 145 148 147 139 131 131 136 140 142 142 143 145 144 143 140 138 135 133 131 131 128 127 129 123 119 124 124 119 115 113 115 116 117 116 114 109 104 103 106 111 113 115 115 116 121 121 119 122 122 122 125 125 123 123 123 124 125 124 123 122 121 120 118 115 113 114 115 114 111 109 109 107 103 94 86 86 85
339 353 330 335 346 83 95 151 141 134 139 138 144 163 152 145 152 153 149 142 143 153 147 139 137 140 142 143 145 145 146 147 147 146 141 138 135 133 131 131 127 126 131 125 126 137 134 119 113 111 117 122 120 115 115 114 109 104 106 109 112 118 117 118 123 121 122 125 125 124 124 123 122 121 121 122 124 123 122 122 122 120 119 117 118 119 117 115 109 105 106 104 97 88 81 76 69
19 19 356 358 27 93 114 118 123 128 129 129 145 154 146 148 152 153 153 142 140 146 141 141 143 144 144 146 147 147 149 150 150 147 143 140 136 135 132 131 128 127 129 128 133 141 136 123 117 118 122 126 124 120 120 117 114 108 108 109 108 116 121 123 126 124 124 127 127 127 125 123 123 122 120 120 122 123 123 124 126 125 124 124 125 124 121 118 110 102 103 100 88 77 75 82 84
55 46 27 39 66 103 122 124 129 133 121 130 157 147 142 145 146 153 150 132 139 143 141 144 144 145 146 146 147 149 150 151 151 148 145 142 138 138 137 135 131 129 131 131 134 136 134 130 123 125 129 129 127 129 127 120 118 114 112 113 110 113 120 126 129 129 129 130 130 128 126 126 127 126 123 122 122 124 126 128 130 131 131 132 131 126 122 118 112 103 92 89 87 81 81 100 117
124 90 69 73 86 104 121 132 134 127 117 138 163 143 139 140 142 150 138 131 144 148 144 144 144 146 146 147 149 149 150 151 151 149 147 145 143 142 139 136 132 132 134 132 135 136 137 137 130 128 132 130 123 125 129 123 119 116 115 119 116 115 122 127 129 130 132 134 134 130 127 128 130 130 126 124 125 127 129 130 129 130 130 131 130 123 116 113 111 103 88 81 93 103 106 102 106
145 105 96 90 87 102 121 125 121 123 131 154 166 143 128 124 129 133 132 138 148 149 147 144 145 148 148 151 150 148 151 152 152 152 150 148 145 142 138 136 133 135 136 135 139 138 138 140 135 132 132 127 118 121 130 127 120 115 118 124 121 121 127 130 130 131 134 136 137 132 128 127 126 127 125 122 126 132 134 131 128 129 128 127 128 120 112 110 102 94 91 98 119 127 144 124 104
114 114 111 109 103 105 118 110 100 113 127 142 145 131 115 119 125 126 136 144 145 149 149 146 149 151 152 153 150 151 154 153 154 153 151 148 144 141 139 138 137 138 138 138 139 136 138 139 136 136 133 129 123 126 132 128 119 113 118 125 122 126 131 130 130 131 132 135 137 134 131 130 125 125 126 124 131 141 138 133 129 128 128 130 131 121 107 100 96 93 105 134 130 121 144 134 114
108 113 99 105 120 126 124 105 99 111 95 111 132 124 120 134 136 132 146 149 147 150 150 150 153 153 154 154 152 154 155 154 155 153 152 148 145 144 142 142 140 139 138 138 137 137 139 138 137 139 139 138 135 135 133 125 120 116 122 128 124 123 126 129 131 131 131 133 133 128 126 130 131 131 135 136 140 142 135 131 129 127 129 131 125 112 100 103 123 145 149 136 120 119 128 119 108
95 101 81 79 100 115 119 111 125 134 93 119 130 122 128 163 168 143 151 155 153 154 151 153 156 154 156 154 153 157 156 154 154 155 155 150 150 149 145 145 141 138 140 137 139 140 139 139 138 140 140 140 141 138 131 129 133 127 124 127 124 121 120 125 131 133 136 135 131 125 120 124 130 136 140 139 136 133 131 135 133 123 121 125 125 129 138 139 143 148 140 122 111 107 101 107 110
108 105 85 76 73 86 127 137 151 135 122 169 142 125 132 154 143 145 155 161 160 157 153 155 156 157 157 153 155 160 155 155 156 158 158 153 155 154 148 148 142 140 141 138 142 141 139 139 138 141 138 134 140 136 130 136 139 130 126 124 122 122 120 124 134 139 143 144 141 133 127 129 140 145 141 132 131 135 137 137 132 125 135 149 144 137 127 108 93 91 99 103 103 95 76 97 112
123 122 127 127 110 191 233 213 158 128 159 185 173 133 137 128 141 153 160 165 166 159 155 158 157 159 158 153 159 161 156 158 161 161 160 158 158 156 151 149 144 141 141 141 144 142 140 140 139 143 137 134 140 133 131 136 134 134 134 127 124 128 132 137 145 145 145 150 151 146 143 146 150 144 134 128 132 138 134 131 134 140 149 152 136 120 108 102 104 91 80 86 89 98 100 87 107
147 138 146 154 164 186 213 220 156 138 181 192 187 137 152 139 149 161 164 171 173 162 159 162 158 160 157 156 163 160 159 164 164 162 160 161 162 159 156 151 146 143 142 143 144 142 142 142 142 143 138 140 142 135 135 134 133 142 136 130 132 133 138 141 143 144 144 147 146 147 148 148 146 136 130 131 131 128 125 129 140 140 132 128 128 122 117 126 131 120 113 110 83 99 113 82 104
190 160 168 185 170 147 195 237 192 160 173 195 214 162 154 152 159 165 169 176 179 168 163 164 161 161 158 160 166 160 163 167 165 165 163 165 165 160 159 154 147 147 145 145 144 142 143 144 144 143 140 141 140 136 135 133 138 143 134 134 135 128 133 133 133 139 141 142 142 144 143 142 144 135 128 126 123 125 132 144 154 141 128 128 131 121 115 124 125 113 111 123 118 124 128 91 86
203 202 201 183 159 151 176 218 225 213 162 190 242 183 151 161 165 168 173 179 184 173 168 167 162 163 161 164 167 161 165 170 167 167 165 167 165 160 162 156 150 149 147 146 144 143 144 144 144 143 143 143 143 141 138 138 143 138 132 136 132 130 135 134 135 138 136 140 144 145 143 144 145 138 130 121 117 127 135 153 155 139 130 133 131 120 118 124 127 122 112 119 121 121 118 99 84
203 210 214 173 158 160 162 166 204 209 185 188 216 192 162 165 166 171 178 183 185 176 173 171 165 166 164 168 168 161 167 172 168 167 165 167 164 160 162 158 155 150 148 149 146 146 144 143 146 146 145 147 149 147 143 143 139 131 132 135 133 137 139 139 143 141 143 152 152 149 147 147 146 144 136 125 124 135 142 156 155 142 137 139 136 126 117 114 122 141 133 121 115 108 100 95 197
226 195 201 185 162 153 152 156 175 185 190 194 199 196 172 162 168 174 179 188 190 182 177 173 171 170 166 171 170 162 170 173 168 167 166 166 162 160 162 158 155 152 152 152 148 149 146 145 151 149 147 152 152 147 145 143 134 131 139 139 136 140 141 144 148 147 154 163 159 155 153 151 149 149 142 134 133 138 153 169 169 153 140 144 143 122 109 111 119 126 123 117 119 111 93 88 181
300 237 202 208 192 142 148 156 158 171 194 201 194 191 173 167 175 179 179 187 194 187 181 177 175 173 170 175 169 164 174 172 167 168 168 167 163 162 162 159 158 156 156 154 151 151 148 149 153 150 153 159 153 147 146 142 135 137 147 144 141 144 147 148 149 152 156 163 162 158 157 155 154 153 148 144 142 140 151 167 172 156 142 149 140 115 119 121 113 108 107 106 108 100 85 92 124
300 285 237 186 175 147 145 140 137 170 202 198 189 183 184 180 181 195 185 184 194 193 187 182 178 177 177 178 169 167 176 173 167 169 170 168 165 164 162 162 162 158 158 157 155 154 152 155 153 152 159 163 155 148 146 144 143 147 151 150 146 148 153 151 150 152 159 167 162 157 158 158 158 159 155 152 149 148 154 161 166 161 151 149 133 122 131 119 110 113 110 102 98 83 62 133 172
267 277 286 155 163 181 142 126 132 195 217 182 194 189 192 190 184 211 208 187 192 192 189 186 181 181 183 180 170 169 175 172 168 170 172 170 167 168 165 166 166 161 161 161 160 159 161 162 155 156 163 161 156 149 147 151 152 153 154 157 157 155 155 153 152 156 167 177 164 159 163 162 164 164 160 159 155 152 157 161 165 165 155 149 139 138 140 131 128 122 112 104 107 92 43 158 165
260 264 270 245 165 148 134 129 142 183 222 176 195 192 191 195 184 203 232 216 202 190 193 197 188 181 186 185 171 170 176 172 171 174 175 172 171 171 167 169 170 164 163 163 164 162 164 163 157 162 164 157 156 153 154 158 154 153 159 162 158 156 157 154 159 165 172 179 168 164 166 164 168 168 165 164 159 158 161 160 165 166 150 147 153 146 140 138 126 106 101 107 118 113 91 132 158
253 245 258 253 147 152 155 136 142 158 186 159 168 175 206 208 190 199 214 213 317 305 256 220 202 187 187 189 176 172 179 175 174 179 177 175 175 173 171 173 172 168 166 166 166 163 166 167 162 165 163 156 162 162 160 162 159 158 168 169 153 152 161 161 165 168 168 175 172 169 167 164 166 167 168 164 160 165 166 163 167 165 144 143 150 137 131 126 107 91 102 119 138 130 123 121 112
239 245 261 282 139 163 146 124 130 140 147 139 140 133 293 236 209 208 182 136 272 280 269 239 219 210 196 193 184 177 180 179 178 180 180 179 177 174 174 175 174 171 170 170 169 168 173 174 168 168 164 160 167 169 166 168 167 166 171 169 155 156 164 162 165 164 162 173 175 170 169 166 166 169 171 165 167 177 176 172 169 163 148 142 140 130 126 115 97 99 107 128 165 135 123 126 95
235 236 250 272 234 131 125 133 138 141 165 152 153 165 250 239 227 217 173 141 191 222 241 238 214 222 210 194 189 184 182 181 181 181 181 180 177 175 175 176 177 175 175 175 171 172 180 178 172 170 167 165 171 175 175 173 172 172 173 166 159 164 165 160 165 163 160 168 172 173 172 168 168 174 174 168 182 192 184 180 172 164 157 151 149 137 128 120 107 117 114 263 193 144 137 135 106
238 223 237 263 254 132 132 152 154 156 190 170 176 188 169 212 230 220 176 168 203 199 217 229 206 213 212 196 191 189 186 182 184 185 182 181 179 176 176 178 180 178 178 178 172 173 184 185 176 172 171 171 174 175 176 176 174 175 175 169 166 167 167 167 171 168 163 164 171 180 176 167 166 174 180 174 187 199 189 183 173 164 159 150 154 154 134 133 167 175 176 253 222 165 164 151 129
241 283 339 298 282 185 166 189 183 190 179 164 184 200 201 201 207 202 175 172 203 196 201 222 214 212 208 201 196 191 188 183 184 187 183 182 182 179 180 181 182 180 177 179 175 173 186 190 179 173 174 175 176 175 175 176 174 175 176 175 174 170 169 174 175 172 169 166 171 178 175 173 167 169 186 186 189 196 187 183 176 169 171 154 150 168 151 141 189 210 212 231 221 176 180 165 133
247 292 315 313 308 263 202 221 233 217 199 174 190 203 221 234 164 177 169 171 201 207 205 210 214 212 203 206 202 193 191 187 184 187 184 183 184 181 182 183 183 181 177 179 177 173 184 191 181 175 176 177 178 178 178 177 173 173 173 171 172 171 172 175 174 172 168 168 174 174 174 182 173 169 191 197 191 193 189 187 187 183 185 171 157 178 193 177 185 211 235 208 189 170 177 176 160
252 275 279 281 295 273 215 234 261 248 240 223 200 201 219 247 143 166 168 180 200 206 205 200 206 209 201 202 204 196 194 189 187 189 186 186 186 183 183 184 184 182 178 179 178 173 177 185 183 178 176 180 181 179 179 178 175 173 168 164 168 171 170 172 173 171 166 169 174 174 177 186 182 179 194 200 191 193 191 187 193 190 184 181 174 185 202 198 173 215 244 217 195 198 187 180 182
245 265 283 276 278 281 268 272 287 287 257 239 225 211 213 213 172 177 188 193 191 189 194 197 201 206 201 201 205 203 198 192 190 192 189 187 187 184 183 185 183 181 180 179 178 175 173 179 184 180 177 181 181 180 181 179 177 175 169 167 171 173 171 170 173 174 172 171 174 178 186 189 186 186 194 198 192 191 189 184 191 194 189 191 192 196 197 187 178 197 225 232 219 218 210 199 189
232 240 266 264 253 250 248 247 255 264 255 240 239 233 229 236 185 186 200 196 185 184 188 190 195 202 200 200 204 206 203 196 192 192 189 186 187 187 186 187 184 181 182 181 180 180 176 177 183 180 178 180 180 181 182 182 180 176 174 174 170 169 175 179 179 177 180 183 183 188 194 192 189 188 192 198 191 190 194 190 192 195 199 205 205 205 198 190 196 203 210 224 231 235 221 215 202
222 216 248 247 235 229 224 223 230 244 248 231 237 250 239 236 138 183 193 192 189 189 188 185 189 194 194 196 201 204 206 201 195 193 190 188 189 189 188 188 184 181 181 179 179 181 178 178 183 182 180 180 180 182 183 185 184 179 180 180 174 170 174 184 186 183 187 190 187 191 197 195 192 186 188 197 192 193 202 200 198 204 210 213 212 212 204 197 203 206 204 206 215 231 229 218 207
203 204 228 232 240 233 221 222 225 241 247 219 210 234 218 124 121 183 185 187 190 189 188 187 189 190 189 194 200 203 205 202 196 194 193 190 189 189 187 186 184 182 181 179 179 180 178 180 183 183 183 182 181 182 183 186 187 184 185 182 178 177 177 185 190 188 190 192 190 197 201 199 198 191 192 205 206 203 206 206 210 217 218 217 217 218 215 209 208 209 211 216 216 220 226 218 204
194 218 233 230 240 244 241 235 221 239 249 212 193 208 185 131 157 184 183 182 183 185 187 186 189 189 187 192 198 201 205 206 199 195 195 191 187 187 188 185 182 182 182 181 181 180 179 183 186 185 184 184 183 183 185 188 188 188 189 185 183 184 185 188 189 186 192 196 198 202 201 199 200 197 200 209 210 204 204 208 217 222 219 217 217 217 217 215 215 219 222 227 229 227 225 222 214
185 203 231 236 240 247 267 276 277 282 282 238 188 151 78 111 136 153 171 170 165 169 175 178 183 185 183 190 197 201 207 212 204 193 193 192 186 186 188 185 182 184 186 184 181 180 180 184 188 188 187 187 186 185 186 189 191 190 192 191 189 188 190 190 187 188 195 197 199 201 200 201 200 198 207 211 207 203 206 212 220 225 221 218 220 218 218 220 220 225 230 232 233 231 227 225 225
178 188 215 230 249 260 263 267 276 283 289 270 216 130 113 132 131 138 156 158 155 157 163 169 177 180 181 188 195 198 204 213 209 194 190 190 186 186 187 184 184 186 187 187 183 178 180 185 186 189 191 190 188 187 188 190 191 191 194 196 195 192 191 192 193 195 194 192 198 202 200 204 205 201 209 215 209 205 212 218 223 227 222 221 225 222 220 227 228 228 234 237 235 237 238 233 231
243 201 202 205 229 257 272 267 258 252 256 253 223 154 143 160 144 155 170 168 167 168 162 159 168 180 183 186 193 197 199 208 209 197 190 189 186 186 187 184 186 188 186 188 185 178 181 185 184 186 190 192 191 190 191 193 191 192 196 198 199 196 191 192 197 199 196 193 201 208 203 207 212 206 209 216 212 211 216 217 221 224 221 222 225 223 224 231 233 234 237 237 237 243 249 245 238
256 271 277 223 214 225 245 266 266 249 252 254 224 172 150 158 155 166 174 173 173 172 164 157 167 185 187 185 192 196 197 204 208 200 189 184 184 186 188 186 186 188 187 185 184 180 181 183 182 184 187 189 191 190 189 194 194 193 198 199 199 200 195 190 195 207 209 200 202 211 211 209 211 209 212 214 212 219 220 216 221 223 221 226 226 221 227 232 231 236 240 237 242 249 250 249 245
248 269 282 255 229 209 210 225 252 257 267 268 238 189 126 66 144 164 175 182 167 155 160 165 174 190 191 185 188 195 197 200 205 203 190 179 184 187 189 189 188 187 187 184 182 181 182 184 183 184 187 186 186 188 189 193 193 192 198 201 199 202 198 190 195 211 216 207 203 209 211 209 210 212 218 220 218 218 214 214 226 226 220 229 231 223 227 232 227 234 240 236 243 250 245 241 244
221 238 247 241 222 206 215 214 221 245 270 281 275 181 96 19 297 156 160 151 111 125 162 182 188 193 192 187 188 195 199 198 200 202 195 180 183 188 187 190 191 186 184 183 182 182 184 188 186 185 189 187 184 188 190 191 193 192 197 201 201 203 201 195 197 207 211 208 206 212 215 212 214 217 219 223 224 218 212 216 226 226 222 227 230 224 225 229 227 231 235 233 241 249 246 241 243
213 214 232 250 228 203 232 228 209 220 248 268 282 55 97 349 328 99 114 106 98 131 163 189 205 198 195 195 193 194 198 198 196 198 196 184 180 184 184 187 189 187 185 183 183 185 185 187 187 185 188 189 187 191 195 194 193 193 197 200 201 203 202 199 200 204 208 207 206 218 225 219 218 219 218 221 223 219 219 220 219 220 223 226 228 224 221 227 230 229 230 235 243 248 245 242 242